• Processing (Info)

  • MPEC 2023-F85 : 2023 FM2

    The following Minor Planet Electronic Circular may be linked-to from your own Web pages, but must not otherwise be redistributed electronically.

    A form allowing access to any MPEC is at the bottom of this page.


    Read MPEC 2023-F84 Read MPEC 2023-F86


    M.P.E.C. 2023-F85                                Issued 2023 March 21, 11:51 UT
    
         The Minor Planet Electronic Circulars contain information on unusual
             minor planets, routine data on comets and natural satellites,
             and occasional editorial announcements.  They are published
        on behalf of Division F of the International Astronomical Union by the
              Minor Planet Center, Smithsonian Astrophysical Observatory,
                              Cambridge, MA 02138, U.S.A.
    			  
                 Prepared using the Tamkin Foundation Computer Network
    
                                  MPC@CFA.HARVARD.EDU
                URL https://www.minorplanetcenter.net/    ISSN 1523-6714
    
                                    2023 FM2                                 
    
    
    Observations:
         K23F02M* C2023 03 19.44006312 47 37.541-20 33 55.92         20.55wUEF085F52
         K23F02M  C2023 03 19.45093612 47 38.150-20 31 54.84         20.70wUEF085F52
         K23F02M  C2023 03 19.46178812 47 38.761-20 29 53.96         20.47wUEF085F52
         K23F02M  C2023 03 19.47266312 47 39.372-20 27 52.28         20.66wUEF085F52
         K23F02M  C2023 03 19.55137612 47 43.870-20 13 01.87         19.90GVEF085F52
         K23F02M |C2023 03 20.19647 12 48 48.81 -18 04 03.4          20.3 VuEF085807
         K23F02M |C2023 03 20.20223 12 48 49.16 -18 02 52.1          20.3 VuEF085807
         K23F02M |C2023 03 20.20800 12 48 49.59 -18 01 40.0          20.2 VuEF085807
         K23F02M KC2023 03 20.97563612 50 07.09 -15 14 31.1          20.0 GXEF085I93
         K23F02M KC2023 03 20.98304912 50 07.67 -15 12 48.7          19.8 GXEF085I93
         K23F02M KC2023 03 20.99046012 50 08.23 -15 11 05.3          19.7 GXEF085I93
         K23F02M KC2023 03 21.00060212 50 08.11 -15 08 44.4          19.6 GVEF085104
         K23F02M KC2023 03 21.01033012 50 08.82 -15 06 28.3                VEF085104
         K23F02M hC2023 03 21.03639612 50 10.54 -15 00 22.4          19.9 GVEF085L01
         K23F02M IC2023 03 21.03787912 50 10.61 -15 00 01.7          19.8 GVEF085L01
         K23F02M IC2023 03 21.03936112 50 10.71 -14 59 40.9          19.8 GVEF085L01
         K23F02M hC2023 03 21.04084512 50 10.86 -14 59 20.4          20.2 GVEF085L01
         K23F02M hC2023 03 21.04232512 50 10.95 -14 58 58.9          20.5 GVEF085L01
         K23F02M |C2023 03 21.36402 12 50 41.70 -13 39 45.6          20.0 GVEF085807
         K23F02M |C2023 03 21.36772 12 50 42.02 -13 38 50.9          19.8 GVEF085807
         K23F02M |C2023 03 21.37141 12 50 42.32 -13 37 55.8          19.9 GVEF085807
    
    Observer details:
    104 San Marcello Pistoiese.  Observers P. Bacci, M. Maestripieri.  Measurer P.
        Bacci.  0.60-m f/4.0 reflector + CCD.
    807 Cerro Tololo Observatory, La Serena.  Observers T. Linder, R. Holmes, L.
        Horn.  0.61-m f/6.5 Dall-Kirkham Astrograph + CCD, 1.00-m f/10.0
        astrograph + CCD.
    F52 Pan-STARRS 2, Haleakala.  Observers J. Bulger, T. Lowe, A. Schultz, I.
        Smith, K. Chambers, T. Dukes.  Measurers K. Chambers, S. Chastel, T. de
        Boer, J. Fairlamb, H. Gao, M. Huber, C.-C. Lin, E. Magnier, Y.
        Ramanjooloo, R. Wainscoat, R. Weryk.  1.8-m Ritchey-Chretien + CCD.
    I93 St Pardon de Conques.  Observer F. Losse.  0.40-m f/3.7 reflector + CCD.
    L01 Visnjan Observatory, Tican.  Observer K. Korlevic.  1.0-m f/2.9 reflector
        + CCD.
    
    Orbital elements:
    2023 FM2                                                 Earth MOID = 0.0647 AU
    Epoch 2023 Feb. 25.0 TT = JDT 2460000.5                 Veres                   
    M 251.49130              (2000.0)            P               Q                  
    n   0.93982066     Peri.  113.71046     +0.44153871     +0.89698268             
    a   1.0322211      Node   182.78728     -0.89558219     +0.44205661             
    e   0.2634353      Incl.   26.34350     +0.05455383     -0.00283292             
    P   1.05           H   24.24          G   0.15           U   8                  
    Residuals in seconds of arc
    230319 F52  0.1+  0.0     230320 807  0.3+  0.2+    230321 L01  0.0   0.2-
    230319 F52  0.1+  0.1+    230320 I93  0.1-  0.5+    230321 L01  0.2-  0.3-
    230319 F52  0.1+  0.1-    230320 I93  0.2+  0.2-    230321 L01  0.4+  0.7-
    230319 F52  0.1+  0.1-    230320 I93  0.2+  0.0     230321 L01  0.1+  0.1-
    230319 F52  0.1+  0.2+    230321 104  0.4+  0.5-    230321 807  0.2-  0.1+
    230320 807  0.4-  0.1+    230321 104  0.3+  0.6-    230321 807  0.1+  0.1-
    230320 807  0.6-  0.2-    230321 L01  0.6+  0.0     230321 807  0.1+  0.1+
    
    Ephemeris:
    2023 FM2                 a,e,i = 1.03, 0.26, 26                  q = 0.7603
    Date    TT    R. A. (2000) Decl.     Delta      r    Elong.  Phase     V
    2023 02 19    12 18 28.2 -43 32 30   0.3542  1.1932   117.3    47.4    24.2
    ...
    2023 03 06    12 32 26.7 -39 51 11   0.2158  1.1422   129.8    41.8    22.8
    ...
    2023 03 14    12 40 31.6 -32 20 47   0.1458  1.1116   141.4    33.9    21.7
    ...
    2023 03 20    12 48 28.5 -18 44 44   0.09892 1.0872   156.8    21.1    20.4
    2023 03 21    12 50 07.6 -15 07 42   0.09214 1.0831   160.3    18.1    20.2
    2023 03 22    12 51 55.4 -10 56 46   0.08584 1.0789   163.8    14.9    19.9
    ...
    2023 03 28    13 07 45.5 +27 48 18   0.06470 1.0532   147.8    30.3    19.7
    ...
    2023 04 05    14 18 51.6 +75 13 36   0.09462 1.0176    98.0    76.7    21.8
    ...
    2023 04 20    23 22 32.6 +77 06 41   0.2061  0.9487    68.6    99.8    24.3
    
    M. P. C. Staff               (C) Copyright 2023 MPC           M.P.E.C. 2023-F85
    


    Read MPEC 2023-F84 Read MPEC 2023-F86


    MPEC number:

    Enter an MPEC number in one of the following forms:

    • 1997-B01 (the full form)
    • J97B01 (the packed version of the full form)
    • B01 (the abbreviated form)